Yeovilton, United Kingdom

3:38 AM BST on October 17, 2017 (GMT +0100)
Yeovil Radar Navy

Weather History for EGDY - March, 2013

Change the Weather History Date:

Friday, March 29, 2013

  Actual Average Record
Temperature  
Mean Temperature 36 °F -  
Max Temperature 43 °F 54 °F 66 °F (2012)
Min Temperature 28 °F 38 °F 28 °F (2013)
Degree Days  
Heating Degree Days 30    
Moisture  
Dew Point 24 °F    
Average Humidity 59    
Maximum Humidity 80    
Minimum Humidity 38    
Precipitation  
Precipitation 0.00 in - - ()
Sea Level Pressure  
Sea Level Pressure 29.81 in    
Wind  
Wind Speed 10 mph ()    
Max Wind Speed 18 mph    
Max Gust Speed -    
Visibility 6.7 miles    
Events      
Averages and records for this station are not official NWS values.
T = Trace of Precipitation, MM = Missing Value Source: Averaged Metar Reports

Daily Weather History Graph

Daily Weather History Graph

Search for Another Location

Airport or City:

Trip Planner

Search our weather history database for the weather conditions in past years. The results will help you decide how hot, cold, wet, or windy it might be!

Date:

Astronomy

Mar. 29, 2013 Rise Set
Actual Time 5:52 AM GMT 6:38 PM GMT
Civil Twilight 5:19 AM GMT 7:11 PM GMT
Nautical Twilight 4:39 AM GMT 7:52 PM GMT
Astronomical Twilight 3:57 AM GMT 8:34 PM GMT
Moon 9:44 PM GMT (3/29) 6:33 AM GMT (3/29)
Length of Visible Light 13h 52m
Length of Day
12h 45m
Waning Gibbous, 94% of the Moon is Illuminated
Mar 29
Waning Gibbous
Apr 3
Last Quarter
Apr 10
New
Apr 18
First Quarter
Apr 25
Full

Hourly Weather History & Observations

Time (GMT) Temp. Windchill Dew Point Humidity Pressure Visibility Wind Dir Wind Speed Gust Speed Precip Events Conditions
12:50 AM 30.2 °F 23.4 °F 23.0 °F 75% 29.89 in 6.2 mi ENE 6.9 mph - N/A   Partly Cloudy
1:50 AM 30.2 °F 22.6 °F 23.0 °F 75% 29.86 in 6.2 mi ENE 8.1 mph - N/A   Unknown
2:50 AM 29 °F - 22 °F 68% 29.88 in 22 mi NE 10.4 mph - -  
2:50 AM 30.2 °F 21.3 °F 23.0 °F 75% 29.86 in 6.2 mi NE 10.4 mph - N/A   Unknown
3:50 AM 28.4 °F 20.4 °F 23.0 °F 80% 29.86 in 6.2 mi ENE 8.1 mph - N/A   Scattered Clouds
4:50 AM 30.2 °F 23.4 °F 23.0 °F 75% 29.86 in 6.2 mi ENE 6.9 mph - N/A   Overcast
5:50 AM 28 °F - 20 °F 62% 29.88 in 25 mi ENE 9.2 mph - -  
5:50 AM 28.4 °F 19.7 °F 19.4 °F 69% 29.86 in 6.2 mi ENE 9.2 mph - N/A   Partly Cloudy
6:50 AM 30.2 °F 24.3 °F 23.0 °F 75% 29.86 in 6.2 mi ENE 5.8 mph - N/A   Unknown
7:50 AM 33.8 °F 25.8 °F 24.8 °F 70% 29.86 in 6.2 mi East 10.4 mph - N/A   Unknown
8:50 AM 35 °F - 26 °F 58% 29.86 in 25 mi East 11.5 mph - -   Mostly Cloudy
8:50 AM 35.6 °F 27.5 °F 26.6 °F 70% 29.83 in 6.2 mi East 11.5 mph - N/A   Mostly Cloudy
9:50 AM 37.4 °F 27.5 °F 23.0 °F 56% 29.83 in 6.2 mi East 18.4 mph - N/A   Partly Cloudy
10:50 AM 39.2 °F 30.2 °F 23.0 °F 52% 29.80 in 6.2 mi East 17.3 mph - N/A   Scattered Clouds
11:50 AM 39 °F - 23 °F 40% 29.82 in 31 mi East 17.3 mph - -   Mostly Cloudy
11:50 AM 39.2 °F 30.2 °F 23.0 °F 52% 29.80 in 6.2 mi East 17.3 mph - N/A   Scattered Clouds
12:50 PM 41.0 °F 32.5 °F 24.8 °F 53% 29.77 in 6.2 mi East 17.3 mph - N/A   Mostly Cloudy
1:50 PM 41.0 °F 32.8 °F 24.8 °F 53% 29.77 in 6.2 mi East 16.1 mph - N/A   Mostly Cloudy
2:50 PM 42 °F - 25 °F 38% 29.78 in 19 mi East 16.1 mph - -   Mostly Cloudy
2:50 PM 42.8 °F 35.1 °F 24.8 °F 49% 29.77 in 6.2 mi East 16.1 mph - N/A   Mostly Cloudy
3:50 PM 44.6 °F 37.8 °F 26.6 °F 49% 29.74 in 6.2 mi East 15.0 mph - N/A   Mostly Cloudy
4:50 PM 41.0 °F 33.1 °F 24.8 °F 53% 29.74 in 6.2 mi East 15.0 mph - N/A   Mostly Cloudy
5:50 PM 39 °F - 24 °F 41% 29.76 in 31 mi East 11.5 mph - -   Partly Cloudy
5:50 PM 39.2 °F 32.0 °F 23.0 °F 52% 29.74 in 6.2 mi East 11.5 mph - N/A   Scattered Clouds
6:50 PM 37.4 °F 32.1 °F 24.8 °F 60% 29.74 in 6.2 mi East 6.9 mph - N/A   Mostly Cloudy
7:50 PM 37.4 °F 30.8 °F 23.0 °F 56% 29.77 in 6.2 mi East 9.2 mph - N/A   Overcast
8:50 PM 36 °F - 23 °F 47% 29.78 in 28 mi East 10.4 mph - -   Overcast
8:50 PM 35.6 °F 28.0 °F 23.0 °F 60% 29.77 in 6.2 mi East 10.4 mph - N/A   Overcast
9:50 PM 37.4 °F 30.3 °F 23.0 °F 56% 29.77 in 6.2 mi East 10.4 mph - N/A   Overcast
10:50 PM 35.6 °F 28.0 °F 23.0 °F 60% 29.77 in 6.2 mi East 10.4 mph - N/A   Overcast
11:50 PM 36 °F - 24 °F 48% 29.78 in 31 mi East 9.2 mph - -   Overcast
11:50 PM 35.6 °F 28.6 °F 23.0 °F 60% 29.77 in 6.2 mi East 9.2 mph - N/A   Overcast